When you browse on this site, cookies collect data to enhance your experience and personalize the content and advertising you see.
Visit our Privacy Policy to learn more. By continuing to use the site, you agree to this use of cookies and data.
  • In Portugal
  • List of Countries
  • For 7 days
  • Water Temperature
  • Satellite Maps
  • Weather Map
  • Weather Widgets
  • user-avatar
    Login

    Hourly Weather Dikhil

    Today, 25 May, Saturday

    Time Temperature Precipitation Wind Pressure Humidity
    00:00 +33°C° 0 mm 5 mps 716 mmHg 50%
    01:00 +33°C° 0 mm 4 mps 716 mmHg 53%
    02:00 +33°C° 0 mm 4 mps 716 mmHg 55%
    03:00 +31°C° 0 mm 3 mps 716 mmHg 58%
    04:00 +31°C° 0 mm 3 mps 716 mmHg 59%
    05:00 +31°C° 0 mm 3 mps 717 mmHg 60%
    06:00 +31°C° 0 mm 3 mps 717 mmHg 61%
    07:00 +33°C° 0 mm 3 mps 717 mmHg 55%
    08:00 +34°C° 0 mm 4 mps 718 mmHg 48%
    09:00 +35°C° 0 mm 4 mps 718 mmHg 42%
    10:00 +37°C° 0 mm 4 mps 718 mmHg 38%
    11:00 +38°C° 0 mm 3 mps 718 mmHg 33%
    12:00 +39°C° 0 mm 3 mps 717 mmHg 29%
    13:00 +39°C° 0 mm 3 mps 717 mmHg 26%
    14:00 +40°C° 0 mm 3 mps 716 mmHg 23%
    15:00 +42°C° 0 mm 3 mps 716 mmHg 21%
    16:00 +41°C° 0 mm 4 mps 716 mmHg 23%
    17:00 +41°C° 0 mm 5 mps 715 mmHg 25%
    18:00 +40°C° 0 mm 6 mps 715 mmHg 27%
    19:00 +39°C° 0 mm 5 mps 715 mmHg 31%
    20:00 +37°C° 0 mm 4 mps 715 mmHg 35%
    21:00 +36°C° 0 mm 4 mps 716 mmHg 38%
    22:00 +35°C° 0 mm 3 mps 716 mmHg 41%
    23:00 +35°C° 0 mm 3 mps 716 mmHg 43%

    Tomorrow, 26 May, Sunday

    Time Temperature Precipitation Wind Pressure Humidity
    00:00 +34°C° 0 mm 3 mps 716 mmHg 45%
    01:00 +34°C° 0 mm 3 mps 715 mmHg 47%
    02:00 +33°C° 0 mm 3 mps 715 mmHg 50%
    03:00 +31°C° 0 mm 2 mps 715 mmHg 52%
    04:00 +31°C° 0 mm 2 mps 715 mmHg 53%
    05:00 +31°C° 0 mm 2 mps 715 mmHg 54%
    06:00 +30°C° 0 mm 2 mps 715 mmHg 54%
    07:00 +32°C° 0 mm 2 mps 716 mmHg 46%
    08:00 +34°C° 0 mm 3 mps 716 mmHg 38%
    09:00 +36°C° 0 mm 3 mps 717 mmHg 30%
    10:00 +37°C° 0 mm 3 mps 717 mmHg 27%
    11:00 +38°C° 0 mm 3 mps 716 mmHg 25%
    12:00 +39°C° 0 mm 3 mps 716 mmHg 23%
    13:00 +40°C° 0 mm 3 mps 716 mmHg 21%
    14:00 +41°C° 0 mm 4 mps 715 mmHg 20%
    15:00 +42°C° 0 mm 4 mps 715 mmHg 19%
    16:00 +42°C° 0 mm 5 mps 714 mmHg 20%
    17:00 +41°C° 0 mm 5 mps 714 mmHg 22%
    18:00 +41°C° 0 mm 6 mps 714 mmHg 23%
    19:00 +40°C° 0 mm 5 mps 714 mmHg 26%
    20:00 +39°C° 0 mm 5 mps 714 mmHg 29%
    21:00 +37°C° 0 mm 5 mps 715 mmHg 32%
    22:00 +36°C° 0 mm 4 mps 715 mmHg 33%
    23:00 +36°C° 0 mm 4 mps 715 mmHg 35%

    Day after tomorrow, 27 May, Monday

    Time Temperature Precipitation Wind Pressure Humidity
    00:00 +35°C° 0 mm 3 mps 715 mmHg 36%
    01:00 +34°C° 0 mm 3 mps 715 mmHg 38%
    02:00 +34°C° 0 mm 3 mps 714 mmHg 40%
    03:00 +33°C° 0 mm 3 mps 714 mmHg 42%
    04:00 +32°C° 0 mm 2 mps 714 mmHg 43%
    05:00 +32°C° 0 mm 2 mps 714 mmHg 45%
    06:00 +31°C° 0 mm 2 mps 714 mmHg 46%
    07:00 +34°C° 0 mm 2 mps 715 mmHg 41%
    08:00 +35°C° 0 mm 3 mps 716 mmHg 35%
    09:00 +36°C° 0 mm 3 mps 716 mmHg 30%
    10:00 +37°C° 0 mm 3 mps 716 mmHg 27%
    11:00 +39°C° 0 mm 3 mps 716 mmHg 25%
    12:00 +40°C° 0 mm 3 mps 716 mmHg 22%
    13:00 +41°C° 0 mm 4 mps 715 mmHg 21%
    14:00 +42°C° 0 mm 4 mps 714 mmHg 20%
    15:00 +42°C° 0 mm 4 mps 714 mmHg 19%
    16:00 +42°C° 0 mm 5 mps 714 mmHg 21%
    17:00 +41°C° 0 mm 5 mps 714 mmHg 22%
    18:00 +41°C° 0 mm 6 mps 714 mmHg 23%
    19:00 +40°C° 0 mm 6 mps 714 mmHg 25%
    20:00 +39°C° 0 mm 5 mps 715 mmHg 28%
    21:00 +37°C° 0 mm 5 mps 715 mmHg 31%
    22:00 +36°C° 0 mm 5 mps 715 mmHg 32%
    23:00 +35°C° 0 mm 4 mps 715 mmHg 33%

    28 May, Tuesday

    Time Temperature Precipitation Wind Pressure Humidity
    00:00 +35°C° 0 mm 4 mps 715 mmHg 35%
    01:00 +34°C° 0 mm 3 mps 714 mmHg 37%
    02:00 +34°C° 0 mm 3 mps 714 mmHg 39%
    03:00 +32°C° 0 mm 2 mps 714 mmHg 41%
    04:00 +32°C° 0 mm 2 mps 714 mmHg 42%
    05:00 +31°C° 0 mm 2 mps 714 mmHg 44%
    06:00 +31°C° 0 mm 2 mps 715 mmHg 46%
    07:00 +32°C° 0 mm 2 mps 715 mmHg 41%
    08:00 +35°C° 0 mm 3 mps 716 mmHg 35%
    09:00 +36°C° 0 mm 3 mps 717 mmHg 30%
    10:00 +37°C° 0 mm 4 mps 716 mmHg 28%
    11:00 +38°C° 0 mm 4 mps 716 mmHg 27%
    12:00 +40°C° 0 mm 4 mps 716 mmHg 25%
    13:00 +41°C° 0 mm 4 mps 715 mmHg 24%
    14:00 +42°C° 0 mm 4 mps 714 mmHg 22%
    15:00 +42°C° 0 mm 5 mps 714 mmHg 21%
    16:00 +42°C° 0 mm 5 mps 714 mmHg 22%
    17:00 +41°C° 0 mm 5 mps 714 mmHg 23%
    18:00 +41°C° 0 mm 6 mps 714 mmHg 25%
    19:00 +40°C° 0 mm 5 mps 714 mmHg 27%
    20:00 +39°C° 0 mm 5 mps 715 mmHg 30%
    21:00 +37°C° 0 mm 4 mps 715 mmHg 32%
    22:00 +36°C° 0 mm 4 mps 715 mmHg 35%
    23:00 +36°C° 0 mm 4 mps 715 mmHg 37%

    29 May, Wednesday

    Time Temperature Precipitation Wind Pressure Humidity
    00:00 +35°C° 0 mm 4 mps 715 mmHg 39%
    01:00 +34°C° 0 mm 4 mps 714 mmHg 42%
    02:00 +34°C° 0 mm 3 mps 714 mmHg 44%
    03:00 +33°C° 0 mm 3 mps 713 mmHg 47%
    04:00 +32°C° 0 mm 2 mps 714 mmHg 48%
    05:00 +31°C° 0 mm 2 mps 714 mmHg 50%
    06:00 +31°C° 0 mm 2 mps 714 mmHg 52%
    07:00 +32°C° 0 mm 2 mps 715 mmHg 47%
    08:00 +35°C° 0 mm 3 mps 715 mmHg 43%
    09:00 +36°C° 0 mm 3 mps 716 mmHg 39%
    10:00 +37°C° 0 mm 3 mps 716 mmHg 36%
    11:00 +38°C° 0 mm 3 mps 715 mmHg 33%
    12:00 +39°C° 0 mm 3 mps 715 mmHg 30%
    13:00 +40°C° 0 mm 3 mps 714 mmHg 28%
    14:00 +41°C° 0 mm 4 mps 714 mmHg 27%
    15:00 +42°C° 0 mm 4 mps 713 mmHg 25%
    16:00 +42°C° 0 mm 4 mps 713 mmHg 25%
    17:00 +41°C° 0 mm 5 mps 713 mmHg 25%
    18:00 +41°C° 0 mm 5 mps 713 mmHg 25%
    19:00 +40°C° 0 mm 5 mps 714 mmHg 29%
    20:00 +39°C° 0 mm 5 mps 714 mmHg 33%
    21:00 +37°C° 0 mm 5 mps 714 mmHg 37%
    22:00 +36°C° 0 mm 5 mps 714 mmHg 39%
    23:00 +36°C° 0 mm 4 mps 714 mmHg 41%

    30 May, Thursday

    Time Temperature Precipitation Wind Pressure Humidity
    00:00 +35°C° 0 mm 4 mps 714 mmHg 44%
    01:00 +34°C° 0 mm 4 mps 714 mmHg 47%
    02:00 +34°C° 0 mm 4 mps 713 mmHg 50%
    03:00 +33°C° 0 mm 4 mps 713 mmHg 52%
    04:00 +33°C° 0 mm 3 mps 713 mmHg 55%
    05:00 +31°C° 0 mm 3 mps 714 mmHg 57%
    06:00 +31°C° 0 mm 2 mps 714 mmHg 59%
    07:00 +32°C° 0 mm 2 mps 715 mmHg 53%
    08:00 +35°C° 0 mm 2 mps 715 mmHg 47%
    09:00 +36°C° 0 mm 2 mps 716 mmHg 41%
    10:00 +37°C° 0 mm 3 mps 715 mmHg 36%
    11:00 +38°C° 0 mm 3 mps 715 mmHg 31%
    12:00 +40°C° 0 mm 3 mps 715 mmHg 26%
    13:00 +40°C° 0 mm 3 mps 714 mmHg 25%
    14:00 +42°C° 0 mm 4 mps 713 mmHg 24%
    15:00 +42°C° 0 mm 4 mps 713 mmHg 22%
    16:00 +42°C° 0 mm 4 mps 713 mmHg 24%
    17:00 +42°C° 0 mm 4 mps 713 mmHg 25%
    18:00 +41°C° 0 mm 5 mps 713 mmHg 26%
    19:00 +40°C° 0 mm 5 mps 713 mmHg 31%
    20:00 +39°C° 0 mm 5 mps 714 mmHg 37%
    21:00 +37°C° 0 mm 5 mps 714 mmHg 42%
    22:00 +37°C° 0 mm 5 mps 714 mmHg 42%
    23:00 +36°C° 0 mm 5 mps 714 mmHg 43%
    Show more